Weather in Taldom

Russia / Moscow Oblast     56°43′51″N   37°31′39″E
temp.,
°C
wind,
m/s
gust,
m/s
humid.,
%
clouds,
%
prec.,
mm/h
press.,
hPa
HPBL,
m
19 january, wed
wed1900:00−14w259857 0.0 101775
03:00−15w279867 0.0 1017120
06:00−15w259873 0.0 101773
09:00−16wsw259892 0.0 101776
12:00−10sw368878 0.0 1016189
15:00−7ssw3108478 0.0 1014328
18:00−7ssw4119593 0.1 1012354
21:00−7ssw41294100 0.2 1010384
20 january, thu
thu2000:00−6ssw41293100 0.1 1008400
03:00−4ssw51393100 0.1 1006461
06:00−3ssw51293100 0.1 1004599
09:00−2ssw51193100 0.1 1003605
12:00−2s61291100 0.0 1002606
15:00−1s61390100 0.0 1001738
18:00−2s61490100 0.0 1000790
21:00−4s61395100 0.6 999727
21 january, fri
fri2100:00−4s61390100 1.1 999663
03:00−4s51395100 2.1 999627
06:00−4s51192100 0.2 999532
09:00−4sse4994100 0.3 1000409
12:00−4se4992100 0.0 1001391
15:00−5se3796100 0.8 1000460
18:00−6se3895100 1.3 1000553
21:00−7ese4109499 1.8 1001451
22 january, sat
sat2200:00−8ese3995100 0.2 1002335
03:00−7e3895100 1.3 1003422
06:00−7ese3795100 1.1 1004379
09:00−11ese289763 1.1 1008137
12:00−8ese399279 0.0 1011372
15:00−7e3893100 0.0 1013403
18:00−11ene389775 0.0 1016161
21:00−13e279769 0.1 1019117
23 january, sun
sun2300:00−15e239971 0.0 102246
03:00−17ne2210080 0.1 102434
06:00−16ne249885 0.1 102661
09:00−17ne1110075 0.1 10289
12:00−12nne1294100 0.0 1030135
15:00−10n239496 0.1 1031203
18:00−17n1110076 0.0 10339
21:00−14n1197100 0.0 103441